Zurück zum Katalog

DFS 2

AktivKommunikationGEO
NORAD 20706·PAYLOAD·🇩🇪 Germany

Gestartet Jul 24, 1990 von Guiana Space Centre

Loading…

TLE

AktuellSource: Space-Track

Epoche: Sep 14, 2026, 00:10 UTC

1 20706U 90063B   26257.00710311 -.00000081  00000-0  00000-0 0  9998
2 20706  14.6047   2.9590 0007422 265.0406  98.5990  0.99551882123814

Verfolge DFS 2 in Echtzeit mit AllMySat

Download on the App Store